PROGRESS-MS 33

Last updated on Mon Sep 07 2026 00:02:06 GMT+0000 (Coordinated Universal Time)

1 68319U 26058A 26249.46623010 .00004151 00000+0 83451-4 0 9998 2 68319 51.6308 257.8166 0005025 113.2307 246.9211 15.49006161585169
UTC large
Height (km)
Speed (km/s)
/
Latitude / Longitude
Inclination (degrees)
Orbital Period (minutes)
Azimuth
Elevation
Range (km)
Doppler Factor

Next 0 passes for location: London (51.5072 / 0.1276)

No passes found over London.
PROGRESS-MS 33